FALCON 9 DEB (53808 NORAD) Tracking and Keplerian Element Data

This shows tracking and keplerian element data for the satellite.

Feedback or suggestion? Click here.




ElementValue
Catalog53808
NameFALCON 9 DEB
Epoch Orbit572
Epoch Day289.99396575
Epoch Year2022
RAAN84.7969
Inclination53.1941
Eccentricity0.0012249
Argument of Perigee317.3994
Mean Anonmoly42.6092
Mean Motion16.14603261
Decay Rate0.01842472
L11 53808U 22111AM 22289.99396575 .01842472 31267-2 14484-2 0 9999
L22 53808 53.1941 84.7969 0012249 317.3994 42.6092 16.14603261 5723



Live tracking and technical data element details for FALCON 9 DEB (NORAD 53808). FALCON 9 DEB can be tracked NOW for your location showing map with azimuth and elevation plus other details from your city location.







IsCatalogInMostPopularTable: catalog: 53808, numindb: -1

Insert: records affected: 1


GetName: 53808 FALCON 9 DEB

Hit Count: inserted at: Thu, 08 Dec 2022 08:50:10 GMT